Change the Weather History Date:

Thursday, April 25, 2013

  Actual Average (KINT) Record (KINT)
Temperature  
Mean Temperature 57 °F -  
Max Temperature 68 °F 69 °F 86 °F (1990)
Min Temperature 45 °F 49 °F 30 °F (1967)
Degree Days  
Heating Degree Days 8    
Growing Degree Days 7 (Base 50)    
Moisture  
Dew Point 38 °F    
Average Humidity 53    
Maximum Humidity 81    
Minimum Humidity 23    
Precipitation  
Precipitation 0.00 in - - ()
Sea Level Pressure  
Sea Level Pressure 30.20 in    
Wind  
Wind Speed 3 mph (North)    
Max Wind Speed 9 mph    
Max Gust Speed 22 mph    
Visibility 10 miles    
Events      
Averages and records for this station are not official NWS values.
T = Trace of Precipitation, MM = Missing Value Source: NWS Daily Summary

Daily Weather History Graph

Daily Weather History Graph

Search for Another Location

Airport or City:

Trip Planner

Search our weather history database for the weather conditions in past years. The results will help you decide how hot, cold, wet, or windy it might be!

Date:

Astronomy

Apr. 25, 2013 Rise Set
Actual Time 6:35 AM EDT 8:03 PM EDT
Civil Twilight 6:08 AM EDT 8:30 PM EDT
Nautical Twilight 5:36 AM EDT 9:02 PM EDT
Astronomical Twilight 5:02 AM EDT 9:36 PM EDT
Moon 8:13 PM EDT (4/25) 6:17 AM EDT (4/25)
Length of Visible Light 14h 21m
Length of Day
13h 27m
Full, 100% of the Moon is Illuminated
Apr 25
Full
Apr 25
Full
May 2
Last Quarter
May 9
New
May 18
First Quarter

Hourly Weather History & Observations

Time (EDT) Temp. Dew Point Humidity Pressure Visibility Wind Dir Wind Speed Gust Speed Precip Events Conditions
12:15 AM 64.4 °F 55.4 °F 73% 30.04 in 10.0 mi SW 3.5 mph - N/A   Clear
12:35 AM 63.5 °F 55.4 °F 75% 30.04 in 10.0 mi WSW 3.5 mph - N/A   Clear
12:55 AM 62.8 °F 55.4 °F 77% 30.05 in 10.0 mi WSW 3.5 mph - N/A   Clear
1:15 AM 61.9 °F 55.6 °F 80% 30.05 in 10.0 mi Calm Calm - N/A   Clear
1:35 AM 61.7 °F 55.9 °F 81% 30.06 in 10.0 mi Calm Calm - N/A   Scattered Clouds
1:55 AM 62.2 °F 56.3 °F 81% 30.06 in 10.0 mi West 4.6 mph - N/A   Mostly Cloudy
2:15 AM 61.9 °F 54.3 °F 76% 30.06 in 10.0 mi NNW 3.5 mph - N/A   Mostly Cloudy
2:35 AM 60.3 °F 50.2 °F 69% 30.07 in 10.0 mi Calm Calm - N/A   Mostly Cloudy
2:55 AM 59.2 °F 48.7 °F 68% 30.07 in 10.0 mi NNW 3.5 mph - N/A   Mostly Cloudy
3:15 AM 58.1 °F 47.1 °F 67% 30.08 in 10.0 mi North 6.9 mph - N/A   Mostly Cloudy
3:35 AM 57.2 °F 45.7 °F 65% 30.10 in 10.0 mi North 6.9 mph - N/A   Mostly Cloudy
3:55 AM 56.3 °F 45.0 °F 66% 30.11 in 10.0 mi Calm Calm - N/A   Overcast
4:15 AM 55.9 °F 45.0 °F 67% 30.11 in 10.0 mi North 3.5 mph - N/A   Overcast
4:35 AM 55.0 °F 44.1 °F 67% 30.12 in 10.0 mi North 8.1 mph - N/A   Mostly Cloudy
4:55 AM 53.4 °F 41.9 °F 65% 30.14 in 10.0 mi NNW 9.2 mph 21.9 mph N/A   Overcast
5:15 AM 52.5 °F 39.7 °F 62% 30.15 in 10.0 mi NNW 6.9 mph - N/A   Overcast
5:35 AM 51.6 °F 38.8 °F 62% 30.16 in 10.0 mi NNW 3.5 mph - N/A   Mostly Cloudy
5:55 AM 50.2 °F 38.7 °F 65% 30.17 in 10.0 mi North 4.6 mph - N/A   Clear
6:15 AM 49.5 °F 37.0 °F 62% 30.19 in 10.0 mi North 6.9 mph - N/A   Mostly Cloudy
6:35 AM 49.1 °F 36.3 °F 61% 30.20 in 10.0 mi North 4.6 mph - N/A   Mostly Cloudy
6:55 AM 48.7 °F 35.4 °F 60% 30.22 in 10.0 mi North 3.5 mph - N/A   Scattered Clouds
7:15 AM 48.2 °F 33.8 °F 58% 30.23 in 10.0 mi North 4.6 mph - N/A   Scattered Clouds
7:35 AM 47.8 °F 34.2 °F 59% 30.24 in 10.0 mi North 5.8 mph - N/A   Clear
7:55 AM 48.2 °F 34.7 °F 60% 30.24 in 10.0 mi NNE 4.6 mph - N/A   Scattered Clouds
8:15 AM 48.4 °F 35.4 °F 61% 30.25 in 10.0 mi NNE 5.8 mph - N/A   Clear
8:35 AM 48.9 °F 35.6 °F 60% 30.25 in 10.0 mi NNE 4.6 mph - N/A   Clear
8:55 AM 49.5 °F 35.6 °F 59% 30.25 in 10.0 mi NNE 9.2 mph - N/A   Clear
9:15 AM 50.7 °F 35.2 °F 55% 30.25 in 10.0 mi NE 5.8 mph - N/A   Clear
9:35 AM 51.8 °F 35.1 °F 53% 30.25 in 10.0 mi NNE 5.8 mph 16.1 mph N/A   Clear
9:55 AM 52.0 °F 34.5 °F 51% 30.25 in 10.0 mi NE 5.8 mph - N/A   Clear
10:15 AM 53.6 °F 34.2 °F 48% 30.25 in 10.0 mi NNE 6.9 mph - N/A   Clear
10:35 AM 54.0 °F 33.8 °F 46% 30.25 in 10.0 mi North 4.6 mph - N/A   Clear
10:55 AM 56.3 °F 35.4 °F 46% 30.25 in 10.0 mi ENE 4.6 mph - N/A   Clear
11:15 AM 56.5 °F 34.5 °F 44% 30.25 in 10.0 mi ENE 8.1 mph - N/A   Clear
11:35 AM 57.7 °F 35.1 °F 43% 30.26 in 10.0 mi NNE 4.6 mph - N/A   Clear
11:55 AM 58.1 °F 35.4 °F 43% 30.26 in 10.0 mi North 3.5 mph - N/A   Clear
12:15 PM 58.1 °F 35.4 °F 43% 30.26 in 10.0 mi Calm Calm - N/A   Clear
12:35 PM 59.4 °F 34.7 °F 40% 30.26 in 10.0 mi ENE 5.8 mph - N/A   Clear
12:55 PM 60.6 °F 35.2 °F 39% 30.25 in 10.0 mi West 5.8 mph - N/A   Clear
1:15 PM 61.0 °F 34.5 °F 37% 30.25 in 10.0 mi NW 4.6 mph - N/A   Clear
1:35 PM 62.8 °F 35.6 °F 36% 30.25 in 10.0 mi NNW 3.5 mph - N/A   Clear
1:55 PM 63.1 °F 35.2 °F 35% 30.24 in 10.0 mi North 4.6 mph - N/A   Clear
2:15 PM 65.1 °F 36.1 °F 34% 30.24 in 10.0 mi West 3.5 mph - N/A   Clear
2:35 PM 64.8 °F 34.5 °F 33% 30.24 in 10.0 mi NE 5.8 mph - N/A   Clear
2:55 PM 64.8 °F 34.2 °F 32% 30.23 in 10.0 mi NE 4.6 mph - N/A   Clear
3:15 PM 65.8 °F 35.2 °F 32% 30.22 in 10.0 mi Calm Calm - N/A   Clear
3:35 PM 66.6 °F 33.1 °F 29% 30.22 in 10.0 mi WSW 4.6 mph - N/A   Clear
3:55 PM 67.3 °F 34.0 °F 29% 30.21 in 10.0 mi Calm Calm - N/A   Clear
4:15 PM 67.1 °F 33.1 °F 28% 30.21 in 10.0 mi Calm Calm - N/A   Clear
4:35 PM 67.5 °F 32.7 °F 28% 30.21 in 10.0 mi East 3.5 mph - N/A   Clear
4:55 PM 67.6 °F 30.4 °F 25% 30.20 in 10.0 mi Calm Calm - N/A   Clear
5:15 PM 67.8 °F 28.9 °F 23% 30.20 in 10.0 mi NW 3.5 mph - N/A   Clear
5:35 PM 67.5 °F 28.2 °F 23% 30.20 in 10.0 mi Calm Calm - N/A   Clear
5:55 PM 68.2 °F 29.3 °F 23% 30.20 in 10.0 mi Calm Calm - N/A   Clear
6:15 PM 67.3 °F 29.7 °F 25% 30.20 in 10.0 mi Calm Calm - N/A   Clear
6:35 PM 66.4 °F 33.3 °F 29% 30.20 in 10.0 mi Calm Calm - N/A   Clear
6:55 PM 64.9 °F 35.1 °F 33% 30.20 in 10.0 mi Calm Calm - N/A   Clear
7:15 PM 61.9 °F 34.2 °F 35% 30.21 in 10.0 mi Calm Calm - N/A   Clear
7:35 PM 60.1 °F 33.4 °F 37% 30.21 in 10.0 mi Calm Calm - N/A   Clear
7:55 PM 58.8 °F 33.8 °F 39% 30.21 in 10.0 mi Calm Calm - N/A   Clear
8:15 PM 57.2 °F 32.9 °F 40% 30.22 in 10.0 mi Calm Calm - N/A   Clear
8:35 PM 55.8 °F 35.1 °F 46% 30.23 in 10.0 mi Calm Calm - N/A   Clear
8:55 PM 53.4 °F 36.7 °F 53% 30.24 in 10.0 mi Calm Calm - N/A   Clear
9:15 PM 52.0 °F 36.1 °F 55% 30.25 in 10.0 mi Calm Calm - N/A   Clear
9:35 PM 50.4 °F 38.7 °F 64% 30.26 in 10.0 mi Calm Calm - N/A   Clear
9:55 PM 50.2 °F 38.1 °F 63% 30.26 in 10.0 mi Calm Calm - N/A   Clear
10:15 PM 48.2 °F 39.2 °F 71% 30.27 in 10.0 mi Calm Calm - N/A   Clear
10:35 PM 47.1 °F 39.9 °F 76% 30.28 in 10.0 mi Calm Calm - N/A   Clear
10:55 PM 46.2 °F 39.9 °F 79% 30.28 in 10.0 mi Calm Calm - N/A   Clear
11:15 PM 47.5 °F 40.3 °F 76% 30.29 in 10.0 mi Calm Calm - N/A   Clear
11:35 PM 46.9 °F 39.7 °F 76% 30.29 in 10.0 mi Calm Calm - N/A   Clear
11:55 PM 45.5 °F 39.2 °F 79% 30.29 in 10.0 mi Calm Calm - N/A   Clear